Theta_e
302 301 301 301 301 300 307 308 301 308 308 304 299 300 307 309 309 308 308 307 308 309 308 310 310 312 311 310 309 311 310 311 313 314 311 311 312 313 312 306 314 308 301 308
302 302 302 302 301 300 304 307 308 309 308 300 299 305 307 309 310 309 309 310 309 309 309 311 310 310 311 309 310 310 310 310 314 313 312 311 313 313 313 307 303 303 306 309
301 301 301 301 302 300 301 305 300 305 307 307 306 306 305 309 311 309 310 310 309 309 309 309 311 310 311 310 308 310 310 308 307 309 310 312 313 312 312 312 311 307 304 309
300 300 300 299 300 300 299 300 299 300 297 300 302 304 306 308 309 309 310 310 310 310 309 309 310 310 310 309 309 308 307 308 306 308 309 308 309 309 312 312 311 309 310 307
299 298 298 298 298 298 298 298 298 298 299 301 302 304 305 307 308 309 309 311 310 310 309 309 309 307 308 309 308 308 306 307 306 305 309 309 310 309 310 311 311 308 308 308
299 298 298 298 299 299 298 297 297 298 297 298 301 302 302 305 304 308 309 311 309 309 308 308 308 309 308 306 308 307 307 306 304 303 308 308 307 307 308 309 307 309 310 309
299 299 299 299 300 300 299 297 296 296 295 295 296 296 298 301 302 304 305 306 309 309 309 310 310 309 307 306 306 305 306 305 305 306 307 307 304 307 307 309 308 306 307 307
299 302 301 300 299 300 300 298 296 295 293 294 295 297 297 298 301 305 306 307 309 310 310 310 310 310 309 308 308 307 304 305 307 307 306 305 308 308 308 308 308 307 307 307
302 303 303 302 300 300 300 299 296 296 294 295 296 296 298 300 296 300 306 303 306 309 309 312 310 310 309 310 308 305 304 303 305 303 306 309 308 309 307 308 309 309 306 306
302 303 302 302 302 302 302 300 298 296 295 296 296 295 295 296 297 298 300 298 305 308 308 313 311 308 308 308 307 309 307 308 310 307 304 306 304 309 309 313 308 309 308 308
302 303 303 302 304 303 302 301 300 296 295 296 296 296 296 296 296 298 299 299 303 307 311 309 309 308 307 306 306 306 306 305 306 307 310 305 308 309 310 309 312 311 309 308
294 299 300 302 302 302 302 301 299 297 296 297 296 296 297 296 296 296 296 299 297 298 309 305 305 308 306 306 308 304 307 305 306 304 304 304 308 309 310 312 312 312 312 312
292 292 292 294 298 300 301 300 300 298 295 296 296 297 296 296 296 296 296 297 298 302 300 305 310 309 303 307 306 307 306 305 307 307 306 305 308 309 311 312 312 312 311 312
293 293 292 291 292 295 301 299 300 297 296 295 296 296 296 295 295 295 296 297 298 297 297 304 307 308 304 304 304 305 305 305 306 305 305 307 308 309 310 310 310 311 311 311
294 295 295 295 297 299 300 299 299 298 295 295 295 295 295 295 295 296 295 296 295 296 297 303 308 306 305 302 303 305 305 306 307 307 307 307 307 308 310 310 310 311 310 309
296 298 298 300 297 299 298 298 296 296 295 296 294 295 295 294 300 299 296 295 295 296 298 300 303 306 307 307 305 305 306 306 307 307 308 309 310 309 310 310 309 309 308 308
297 298 300 299 299 299 299 298 297 296 296 295 293 293 294 297 300 296 295 295 296 297 298 299 302 305 304 308 307 305 307 307 307 307 308 309 310 310 309 309 308 307 307 307
298 298 299 298 298 297 297 296 296 296 295 294 292 290 293 297 299 300 298 297 298 299 299 301 303 303 304 306 305 306 307 307 307 307 308 308 308 309 308 307 307 307 307 306
298 298 298 297 297 296 296 295 295 296 295 294 293 290 290 296 298 300 299 301 302 300 304 303 305 304 304 303 304 305 306 307 306 306 307 307 307 307 306 306 306 305 304 304
298 297 298 296 295 295 295 295 295 295 295 293 292 293 291 295 298 300 301 301 303 303 301 304 303 302 304 304 304 304 305 306 306 305 305 305 305 305 304 304 303 303 303 303
297 298 297 296 295 295 295 295 295 295 294 293 294 294 295 296 296 300 301 303 303 305 304 305 305 305 301 301 301 302 302 303 304 304 304 304 303 303 302 302 301 301 300 300
298 297 295 295 294 294 295 296 296 295 293 295 296 298 298 298 297 299 301 303 302 305 304 306 305 302 299 299 299 300 300 301 302 302 302 302 301 300 300 300 300 300 300 300
297 296 294 295 294 294 295 286 295 296 298 298 297 298 298 299 298 298 301 304 303 302 306 306 304 300 300 299 298 298 298 299 299 299 300 300 300 299 299 299 298 298 298 298
297 295 290 289 289 294 288 289 291 297 297 296 296 298 298 300 301 302 304 305 303 303 300 301 301 298 298 298 297 298 298 297 297 297 297 296 294 293 293 294 294 294 295 296
295 294 288 290 292 293 295 296 296 296 296 295 296 297 297 300 301 303 302 304 303 305 304 301 297 297 297 297 296 296 297 297 297 297 297 298 296 291 289 289 289 288 289 291
295 293 292 292 292 291 294 294 295 295 295 295 295 298 299 301 301 301 300 301 303 301 298 296 296 298 298 297 297 297 297 298 298 298 295 292 290 289 288 288 288 288 288 288
293 292 293 293 293 293 295 294 294 295 294 295 296 297 299 295 299 299 298 301 299 297 297 297 297 297 297 298 298 298 298 298 297 293 292 290 289 288 288 287 287 287 287 287
Wind_Speed
14 18 21 23 22 21 7 4 2 8 8 4 3 1 3 5 5 5 6 3 4 3 3 0 3 3 3 2 14 7 6 4 3 2 4 6 1 5 5 4 4 2 3 6
12 16 18 21 24 23 14 5 4 4 5 1 3 5 5 6 6 6 6 4 5 2 2 2 2 2 6 6 4 7 6 2 4 2 2 1 4 4 3 4 3 5 5 5
11 15 16 18 21 21 15 6 3 3 3 2 3 5 6 6 8 4 5 4 2 3 2 2 1 3 3 4 2 3 5 3 4 6 3 6 5 7 12 8 4 3 5 7
14 15 17 18 19 19 13 7 2 3 4 4 5 5 5 7 6 5 4 3 3 2 2 2 2 1 1 3 2 2 3 4 4 3 4 4 4 8 15 14 13 8 4 6
14 17 20 21 21 20 8 6 5 4 6 10 5 4 4 6 7 3 6 3 5 0 3 3 1 1 2 1 1 2 1 2 2 3 1 2 2 6 12 17 12 9 6 7
14 17 18 20 21 21 9 10 6 3 4 5 3 1 3 7 10 12 11 6 4 5 4 5 5 4 6 4 1 2 2 4 3 3 1 1 5 10 11 8 6 12 10 11
13 15 15 15 18 20 17 14 8 2 3 3 4 7 8 11 13 9 15 22 12 4 4 6 4 5 5 3 1 2 4 3 2 2 1 1 5 2 7 12 6 9 4 5
12 12 14 16 15 17 16 14 8 3 3 8 7 7 6 16 17 7 8 21 17 6 3 0 3 1 1 2 2 3 3 4 2 3 3 5 2 2 4 6 7 11 12 7
11 13 12 13 15 15 16 13 10 6 2 4 6 6 6 6 5 6 4 26 19 3 2 2 3 4 4 3 2 4 4 5 3 1 2 4 2 2 5 4 4 2 10 8
12 14 15 14 14 15 15 13 12 7 5 6 7 3 5 6 5 4 6 10 10 2 2 1 2 3 2 3 5 4 3 1 4 2 1 6 5 3 5 2 4 2 8 14
13 15 16 16 17 16 16 14 11 8 5 18 4 5 8 11 10 4 9 10 3 2 1 2 1 2 2 1 3 5 5 5 3 2 2 6 3 1 4 4 1 2 3 8
17 17 17 17 17 18 19 10 10 10 12 17 28 19 16 20 16 19 6 4 7 5 2 1 0 1 2 0 1 1 2 5 4 6 5 4 6 3 5 3 3 3 5 4
16 15 15 15 16 15 18 8 12 11 10 17 8 3 2 4 13 10 7 3 3 1 8 6 2 2 2 2 3 1 1 2 2 1 2 4 5 5 2 2 1 2 3 6
11 11 10 11 11 10 12 15 12 8 6 4 7 7 21 17 8 15 21 16 8 13 12 5 2 1 1 2 2 2 3 3 2 3 5 5 5 9 6 4 4 5 5 4
7 6 5 6 3 4 9 10 11 9 5 4 12 23 4 5 9 9 16 14 13 9 3 2 1 4 2 1 1 3 5 5 4 4 4 3 5 9 8 7 6 5 3 2
3 3 3 3 1 6 3 2 2 2 3 4 4 7 6 11 8 8 12 16 14 5 1 3 5 5 2 1 2 6 7 9 9 4 5 4 1 6 9 8 6 3 2 2
3 1 4 7 5 3 2 1 2 7 8 2 6 7 5 12 5 5 2 5 5 5 3 5 4 4 7 2 3 6 6 7 7 6 6 4 8 4 9 7 5 4 3 4
3 4 8 8 4 1 2 5 4 5 4 2 3 4 7 8 4 1 4 5 7 7 5 5 4 3 7 4 12 21 21 15 9 6 11 5 5 9 9 8 6 5 6 7
8 9 7 4 2 3 3 1 2 4 3 2 3 2 3 8 3 3 4 4 3 4 3 3 3 2 4 7 15 17 12 6 5 11 10 7 7 8 7 6 6 6 6 7
11 8 3 2 3 4 1 2 2 1 3 3 4 3 3 5 4 3 1 4 2 2 5 3 3 3 12 5 6 7 6 6 5 9 6 7 7 7 6 6 6 7 9 11
7 5 3 4 5 2 2 2 1 2 3 4 5 6 4 5 2 2 2 2 2 2 2 2 2 2 2 5 2 1 1 2 4 4 3 4 5 6 5 6 8 10 11 12
6 5 10 4 3 2 1 1 2 3 3 2 3 5 8 6 4 3 3 2 2 3 3 2 1 2 5 3 1 0 2 2 3 2 2 2 2 3 5 6 7 9 11 12
7 3 3 4 2 1 4 3 3 2 3 2 7 4 4 4 4 4 2 3 3 2 2 2 1 5 7 3 2 2 2 2 2 3 2 1 2 2 3 3 5 6 8 10
4 5 3 4 2 4 4 4 3 2 4 6 10 6 2 4 3 2 3 2 2 2 2 2 2 14 7 2 3 2 1 2 3 5 6 5 5 4 5 6 7 8 9 10
4 4 3 5 6 4 3 6 3 4 5 7 7 5 4 3 3 1 3 2 3 1 2 2 13 11 3 1 2 2 4 4 4 3 3 2 5 8 8 9 9 11 11 11
4 3 2 4 1 3 5 6 4 2 3 7 4 3 3 3 2 2 3 2 1 2 2 13 12 9 6 3 2 3 3 2 1 1 3 4 5 7 8 9 10 11 12 11
4 4 9 8 4 3 5 5 3 2 2 1 2 2 2 3 2 3 2 1 1 7 10 12 11 9 8 5 2 2 2 1 1 3 4 6 7 9 9 10 10 11 11 11
Wind_Direction
9 9 4 3 6 8 350 356 10 350 345 339 339 234 217 217 235 184 248 223 233 250 303 214 137 190 210 212 157 172 199 125 118 120 335 178 230 160 149 129 193 189 160 272
9 7 2 2 3 3 357 341 280 275 336 114 297 292 278 239 211 182 174 249 196 275 303 301 147 142 239 293 155 168 186 136 118 63 16 1 208 203 186 104 79 208 153 258
360 360 2 2 1 359 356 353 351 316 299 328 3 326 287 298 261 238 170 224 18 7 311 30 238 136 174 285 205 148 116 122 159 189 199 135 186 191 198 195 207 194 224 290
2 1 5 5 3 0 3 18 44 7 310 358 337 327 300 316 314 308 276 138 112 133 290 329 3 358 102 167 197 103 134 165 158 221 153 133 183 182 189 204 215 197 225 221
353 352 355 0 5 10 13 18 5 339 278 308 324 336 316 315 328 319 302 335 333 174 191 202 213 316 4 226 5 107 9 150 109 343 51 145 245 208 200 216 221 249 261 276
342 344 350 358 15 20 39 12 340 292 322 332 353 270 322 283 320 291 260 300 327 305 248 202 249 252 275 249 239 134 90 130 103 255 183 141 288 218 199 206 200 207 210 233
327 334 350 6 23 25 23 14 356 1 297 307 262 328 306 296 314 286 285 305 290 261 295 295 272 265 244 217 69 141 125 108 113 145 76 269 239 181 199 204 209 214 254 238
318 329 342 352 14 7 358 3 0 341 278 254 303 321 296 315 318 285 284 293 279 273 305 20 139 228 157 247 183 148 136 122 107 148 197 288 285 197 148 171 258 209 215 224
309 318 329 340 344 353 342 352 349 329 275 260 295 298 313 323 329 315 349 326 317 262 89 54 164 202 195 191 136 72 65 82 114 144 154 236 258 288 187 146 292 271 197 206
304 309 322 324 324 329 332 342 335 322 278 297 321 313 309 312 328 276 325 331 323 345 99 188 184 251 191 161 176 162 123 219 188 188 239 287 248 256 154 107 243 316 211 214
301 299 303 302 306 308 309 319 325 304 280 296 269 300 275 280 290 280 342 332 9 331 120 181 204 231 254 115 169 170 161 147 190 129 227 277 198 133 168 231 81 79 93 189
301 289 281 286 293 295 298 296 314 310 267 284 301 293 277 265 272 271 286 295 335 291 308 251 186 313 7 144 279 355 180 178 181 171 213 240 221 239 284 185 125 91 105 132
299 300 295 281 275 276 284 303 317 302 291 313 321 340 217 252 287 271 239 227 241 75 2 311 351 296 106 195 245 275 296 157 186 74 288 261 257 228 213 166 150 152 139 131
308 304 306 300 289 273 248 288 308 293 311 292 286 281 300 299 289 251 246 226 252 301 311 282 293 287 226 247 268 201 215 140 177 265 281 289 240 210 208 198 174 162 152 150
302 301 297 310 318 235 232 276 291 272 292 290 294 315 344 324 328 294 242 234 261 298 270 284 281 271 339 344 343 253 194 193 166 226 234 218 259 215 207 189 176 173 187 193
270 278 285 253 271 199 237 277 4 21 327 296 305 310 301 330 336 308 237 239 246 230 256 272 264 270 278 293 253 266 260 259 258 261 249 228 180 164 183 187 183 196 235 282
229 241 127 138 134 172 253 308 322 333 322 291 299 306 303 340 358 9 178 195 193 202 235 245 260 283 23 273 242 280 298 322 293 275 212 174 191 204 196 199 200 222 262 289
164 145 136 131 161 175 75 345 319 305 309 255 281 273 312 353 331 5 135 173 198 209 224 252 237 225 187 248 252 256 269 283 267 242 213 238 247 217 201 209 223 249 275 289
145 129 107 125 123 111 61 16 257 243 244 274 236 237 269 333 321 301 181 210 208 214 223 225 243 205 219 224 244 269 286 268 276 214 220 227 202 198 210 232 253 268 277 284
137 134 141 122 99 106 5 59 91 198 221 230 255 272 277 320 326 299 178 196 249 217 230 192 221 252 244 273 290 297 279 257 201 174 180 197 206 216 234 253 267 279 284 287
154 168 123 133 137 80 62 65 192 178 249 224 244 242 267 293 235 290 268 289 255 254 209 205 250 268 342 335 294 280 135 178 190 200 192 206 222 221 237 260 276 284 288 289
154 150 124 130 113 93 40 236 178 218 249 240 250 297 286 276 229 255 240 254 207 246 161 216 248 320 340 341 344 135 157 157 167 180 188 219 245 270 282 288 292 300 303 301
149 144 110 137 131 167 207 222 221 245 220 241 321 323 290 281 250 258 267 249 236 316 218 225 207 330 308 276 216 157 129 124 131 129 110 89 42 359 354 351 347 345 335 325
184 170 142 162 223 215 197 182 184 218 252 309 322 294 266 283 256 248 271 293 299 310 322 250 27 339 324 237 199 180 149 142 138 123 96 80 57 24 356 340 333 329 327 332
201 167 204 200 217 223 222 210 229 285 295 305 303 276 240 251 272 247 292 261 271 308 342 350 339 342 329 251 201 205 161 147 141 135 134 86 27 352 344 338 335 333 332 329
208 202 160 196 192 232 205 203 213 216 293 304 263 260 265 259 307 273 244 286 326 339 337 335 341 1 349 320 212 190 171 150 119 122 38 357 326 330 336 337 336 334 333 331
206 232 206 196 220 188 151 183 205 169 315 279 335 250 283 313 262 256 226 266 326 330 349 8 6 356 346 331 292 234 221 235 312 332 329 326 325 329 330 329 327 328 329 330